Dewpoint
56 58 59 59 58 57 56 55 53 51 51 50 48 47 48 50 49 45 38 29 38 44 48 45 42 41 40 41 42 41 34 26 24 23 23 25 26 34 37 37 36 36 38 39 54
56 56 57 58 59 58 56 55 54 51 50 52 49 47 48 50 46 40 38 40 42 43 42 35 31 38 32 36 38 37 31 26 25 25 25 29 28 31 34 36 36 37 42 52 61
54 55 56 56 57 59 57 55 54 50 49 50 48 48 49 47 38 26 45 47 42 44 39 37 36 34 30 33 33 32 31 29 29 32 33 34 34 34 35 35 35 36 38 48 56
50 51 52 54 55 56 57 56 53 50 49 48 48 47 48 41 28 33 46 47 48 42 38 37 35 31 30 28 28 28 27 27 29 33 35 34 37 38 36 34 36 46 40 48 53
45 47 48 49 53 54 57 56 53 49 48 49 46 47 43 38 37 34 41 45 44 38 34 32 28 28 24 28 31 28 24 23 25 31 33 33 34 35 37 38 42 45 46 44 47
47 48 47 50 52 56 57 55 51 48 48 48 45 48 40 34 38 34 35 40 40 35 36 34 29 33 29 29 28 25 29 30 30 28 29 30 31 32 34 37 40 45 47 42 42
45 47 47 48 51 57 56 53 50 48 48 47 46 44 40 35 36 38 39 38 39 35 33 37 35 33 30 26 27 30 27 25 26 28 29 27 26 30 32 37 42 43 45 45 40
46 44 45 46 49 53 54 51 48 48 47 46 44 42 36 41 39 38 35 38 38 38 36 37 38 34 33 29 27 24 22 24 18 21 28 29 16 19 27 33 38 41 44 45 46
44 43 45 48 49 54 52 49 48 47 46 45 43 39 34 39 38 36 36 34 37 36 38 38 37 33 33 30 25 24 16 17 20 23 24 28 19 20 29 32 38 41 44 46 49
41 43 45 46 50 53 49 48 47 48 45 43 43 37 38 32 36 36 39 36 34 36 36 35 34 31 30 28 19 20 23 21 19 20 25 24 21 22 36 39 40 42 44 46 48
41 43 42 46 54 50 48 47 40 39 42 36 36 32 33 35 37 36 37 37 37 35 29 31 29 26 28 28 28 27 27 26 27 23 23 24 23 25 41 42 42 43 46 45 47
39 42 43 45 49 48 46 41 39 39 33 39 36 37 37 38 34 36 39 33 31 28 29 31 26 26 27 27 29 30 27 24 26 27 26 23 23 27 38 40 40 43 45 45 43
39 42 43 44 50 46 41 41 46 41 32 34 38 35 35 37 33 35 37 35 30 30 28 26 23 27 27 27 29 30 27 26 27 28 29 26 25 33 37 38 40 42 45 47 45
41 43 43 45 47 45 41 43 44 40 29 30 34 36 38 37 34 38 38 34 33 28 29 29 30 30 30 30 32 27 33 32 31 30 24 29 22 30 32 35 37 38 43 44 48
42 43 43 45 44 43 42 44 43 38 22 32 35 40 38 36 37 38 40 38 31 31 33 27 31 33 31 32 34 31 32 33 30 32 29 28 25 29 35 34 36 37 43 47 49
42 43 44 43 44 44 45 44 40 28 19 32 36 35 36 36 36 40 39 40 38 33 32 31 32 33 35 33 36 35 33 36 33 29 26 30 30 26 30 32 32 38 42 44 45
43 44 43 46 40 46 45 40 28 24 28 31 31 34 32 33 34 37 36 33 30 27 26 30 33 36 37 35 37 36 32 26 24 22 23 32 28 28 26 28 28 27 38 42 47
45 45 42 42 46 47 42 34 24 26 26 32 31 32 29 32 32 34 34 32 34 33 30 28 25 33 36 34 34 33 32 26 18 22 25 30 26 26 29 30 30 29 41 43 45
45 43 42 44 47 46 37 27 26 27 31 30 31 29 28 30 31 31 33 33 35 36 30 29 27 33 36 37 37 32 29 26 25 25 22 25 27 26 30 31 32 37 37 38 40
44 41 41 45 47 41 33 29 29 30 33 29 23 25 23 26 28 29 32 34 33 37 36 34 28 34 37 38 37 35 30 26 28 21 21 19 21 24 28 30 33 33 35 36 37
41 37 44 47 43 37 30 30 30 33 34 29 28 25 24 27 28 28 32 35 35 35 35 31 30 32 33 32 31 29 26 25 24 22 17 14 19 24 28 30 32 33 34 33 34
40 31 45 44 33 34 32 31 33 35 37 33 31 29 26 29 29 30 31 34 36 35 30 31 31 29 29 30 31 33 29 24 20 18 19 17 18 26 29 30 31 31 33 34 35
36 34 43 44 29 31 32 32 36 35 33 33 30 29 31 31 28 31 33 35 36 35 32 30 27 26 26 27 30 29 28 26 24 23 20 16 19 28 30 31 31 32 33 32 30
38 31 35 38 38 31 31 33 34 34 31 33 32 33 31 30 31 30 30 34 35 35 34 30 27 24 20 25 29 28 29 28 24 23 18 20 23 27 29 31 31 33 31 28 28
39 34 36 31 33 31 33 35 31 30 31 30 31 31 30 27 28 28 31 30 33 33 31 29 27 26 25 26 29 29 29 28 25 23 21 22 23 27 29 31 32 33 30 28 27
36 35 37 33 33 30 31 34 31 31 31 29 30 30 29 27 27 27 29 30 31 32 31 29 27 26 24 23 26 26 28 29 28 26 24 23 25 28 29 33 33 31 28 27 28
41 38 31 32 31 28 31 33 32 32 33 32 31 30 30 31 33 34 34 33 33 32 29 28 28 27 24 22 22 20 22 26 29 30 27 23 27 30 31 33 32 28 27 28 29
Wind_Speed
21 22 21 21 19 19 14 14 9 8 8 8 7 8 10 9 10 11 13 3 3 4 1 1 2 1 3 8 8 7 12 19 22 22 20 20 24 23 17 24 23 14 15 17 12
21 21 22 19 18 22 15 13 8 6 6 5 6 7 7 2 8 15 7 7 7 4 2 1 3 3 5 8 7 14 19 20 19 17 17 14 18 19 14 22 26 25 14 8 18
21 21 23 24 19 18 15 13 9 5 4 5 4 5 3 1 5 0 5 5 6 9 5 3 2 3 7 6 13 12 27 18 14 9 12 14 17 21 19 18 20 26 28 12 17
23 24 24 25 23 28 17 12 7 5 3 4 1 1 6 1 1 2 3 6 10 9 7 6 3 4 5 10 11 16 20 23 22 16 16 17 11 17 19 22 15 17 20 12 16
25 25 25 26 25 28 17 14 10 6 5 5 3 3 4 3 6 1 7 1 7 4 4 2 3 4 8 6 8 19 22 20 20 16 18 19 24 22 21 21 17 14 11 15 15
23 24 24 22 25 29 17 13 10 6 5 8 6 9 4 8 4 2 2 3 5 4 4 2 1 2 7 10 11 8 15 15 16 21 21 19 22 21 25 22 16 10 14 26 23
25 24 23 29 30 8 18 16 11 6 7 9 8 4 5 9 4 2 1 7 7 4 2 3 3 4 2 8 10 13 20 22 22 20 14 19 27 33 28 21 16 15 11 24 27
23 25 27 29 30 34 21 16 11 8 7 6 6 4 5 1 2 5 7 7 5 4 4 5 6 9 11 7 11 12 14 12 17 18 20 15 32 29 25 24 22 21 15 14 18
26 26 27 26 36 9 17 16 10 8 6 8 6 5 3 2 2 6 10 8 8 4 4 4 5 10 6 9 11 11 18 20 19 16 18 21 27 25 19 20 25 16 11 11 11
27 26 28 28 38 21 20 15 7 9 7 8 5 4 4 2 5 4 5 7 4 4 3 6 6 7 9 10 15 13 20 19 25 14 22 20 28 18 10 18 18 14 8 6 8
25 25 27 29 9 26 24 17 7 4 9 5 9 4 6 4 4 5 5 8 5 3 6 6 7 15 17 20 21 22 22 23 23 21 18 28 26 25 2 3 11 10 5 2 4
21 22 25 27 17 23 13 5 3 3 4 11 3 8 1 1 4 7 10 7 6 9 8 6 16 20 17 18 19 25 25 29 24 17 18 21 25 19 13 6 5 8 10 4 2
18 21 21 24 11 7 8 5 3 2 3 4 15 5 3 10 4 10 13 6 7 8 11 12 8 6 13 20 24 27 26 26 17 3 17 15 22 14 12 10 8 9 9 8 2
16 18 17 22 3 7 4 9 4 4 1 6 6 5 6 4 5 6 14 6 6 7 9 11 14 14 15 18 16 19 21 18 16 16 10 17 12 18 15 16 15 13 9 15 13
16 14 12 7 3 4 1 15 3 2 4 9 6 8 7 6 5 8 8 5 11 5 2 4 7 10 15 9 8 6 12 18 16 14 14 8 2 7 2 4 8 11 13 15 22
17 12 9 4 6 3 11 14 4 3 5 6 6 7 6 7 4 6 6 2 3 1 6 16 14 8 5 16 8 2 12 9 8 12 5 2 3 7 1 5 6 6 21 19 9
14 13 7 1 2 9 17 9 5 5 4 8 6 8 8 7 6 7 6 6 3 2 1 2 4 7 7 4 3 1 4 4 3 3 5 2 3 5 12 11 11 8 7 13 13
18 9 8 6 5 13 11 4 5 4 3 7 6 9 6 6 4 4 2 2 5 5 3 2 1 4 9 4 5 3 5 3 4 5 5 4 5 7 11 6 3 5 11 15 16
22 19 7 14 14 10 9 3 1 3 7 10 12 6 3 3 3 3 3 4 1 9 2 3 0 5 3 6 5 5 5 6 6 3 6 3 1 3 12 16 12 13 16 17 16
5 11 10 18 18 11 1 4 2 1 7 11 5 4 5 6 4 2 4 2 2 1 1 1 3 2 2 4 4 5 10 2 1 3 5 4 5 7 13 13 13 16 19 17 16
6 7 12 18 14 2 2 4 3 2 3 3 3 5 4 5 3 3 2 3 4 1 7 3 3 1 1 2 4 3 2 0 1 3 3 6 5 9 9 10 14 16 16 17 18
5 8 10 8 5 2 2 3 3 2 3 2 4 4 3 3 5 4 3 1 8 3 2 4 3 5 3 3 4 4 7 5 4 4 5 6 4 7 5 9 13 17 16 15 15
7 7 2 5 4 1 3 3 2 2 2 2 2 2 1 3 4 3 0 2 6 3 4 5 3 2 2 2 1 5 6 6 2 1 5 2 6 6 8 10 10 13 13 13 12
6 6 4 2 1 1 6 3 3 4 4 5 4 4 4 7 8 4 2 2 5 5 5 1 5 4 4 2 4 2 7 11 7 7 7 9 13 8 10 9 9 9 9 10 11
5 5 3 3 5 6 2 3 6 4 3 6 4 4 2 4 4 3 1 1 1 6 2 2 5 5 6 4 1 3 6 8 7 5 6 6 8 13 9 9 9 8 7 7 10
5 6 5 5 3 3 4 3 6 3 6 4 6 6 5 6 4 3 2 2 1 3 2 3 5 3 3 6 4 6 7 4 7 5 9 7 9 6 9 9 7 5 5 6 8
2 1 4 4 2 2 4 5 3 2 5 6 4 8 13 6 4 5 7 8 5 2 3 3 4 2 2 3 1 3 7 6 3 4 2 2 3 8 8 9 8 6 5 4 3
Wind_Direction
335 329 312 259 249 251 251 256 258 283 297 259 294 329 303 295 301 298 283 279 171 209 154 203 227 214 205 220 223 228 241 238 240 241 249 240 240 236 246 249 239 249 260 263 154
325 326 328 324 308 242 231 248 231 272 289 273 285 320 330 323 298 294 279 244 214 202 197 233 238 224 207 218 221 223 237 239 244 260 273 282 242 253 235 247 243 241 252 252 166
330 331 328 321 319 280 217 236 207 238 274 274 290 325 7 20 322 23 313 172 189 118 106 104 146 219 227 222 218 233 244 246 245 272 283 277 265 246 247 251 242 235 240 231 194
335 335 334 330 327 329 211 199 201 229 223 255 191 13 123 143 14 97 301 132 121 119 125 125 154 208 231 227 227 252 248 253 262 266 280 271 289 275 252 256 257 350 262 250 217
332 331 325 321 318 314 213 181 196 201 224 171 161 149 152 199 227 131 314 111 130 122 94 103 244 257 249 240 242 246 255 260 263 264 268 276 263 261 264 259 259 301 261 257 247
336 333 325 321 314 308 186 172 179 188 162 166 147 145 182 238 105 65 264 204 173 147 110 110 284 290 275 260 254 293 285 278 269 260 259 265 271 268 251 258 259 268 263 240 251
332 330 332 331 318 252 168 164 171 163 166 164 149 158 212 250 117 99 264 211 194 174 166 219 264 251 315 265 267 289 287 283 267 250 245 242 263 247 244 249 249 258 276 247 233
331 331 333 324 328 316 161 153 147 144 142 155 167 174 240 209 124 240 226 205 183 171 233 261 233 263 255 263 260 263 270 271 257 247 235 219 254 249 235 235 246 252 276 257 235
334 331 332 321 326 282 140 131 134 148 170 160 163 184 244 148 192 240 217 218 200 196 211 198 229 246 242 233 258 243 254 242 263 244 226 210 249 254 251 229 234 237 258 276 273
328 334 328 323 321 152 130 118 120 114 146 135 121 146 217 208 157 162 192 211 195 159 196 210 222 234 240 227 246 251 231 254 257 241 219 212 236 247 245 218 228 223 234 272 268
323 332 327 341 180 135 123 112 136 122 208 218 180 125 116 114 152 188 162 160 175 178 231 227 228 233 238 235 247 258 273 269 268 252 239 221 223 225 202 228 215 237 239 315 248
315 325 324 335 321 144 131 174 153 108 160 213 210 220 231 132 214 179 166 189 199 236 227 231 249 258 254 250 258 260 252 260 267 260 219 216 222 210 234 241 269 268 252 229 107
318 319 322 336 323 115 132 159 164 215 164 161 209 210 193 194 235 196 189 187 220 233 236 244 256 290 261 258 256 258 234 245 241 248 205 197 212 225 233 225 225 261 260 273 281
310 307 323 342 163 140 187 179 206 220 197 166 186 194 153 174 222 170 198 201 211 236 243 258 266 269 287 270 263 278 219 205 208 226 186 192 180 214 224 218 214 216 239 262 242
304 297 311 351 210 190 213 167 139 249 202 145 141 142 142 183 138 199 189 203 238 214 199 263 290 320 301 261 209 285 154 189 206 117 139 176 137 151 131 255 249 233 233 232 228
300 312 335 342 303 176 153 126 167 184 207 145 129 160 147 213 207 136 185 134 44 235 228 261 287 283 262 305 282 2 110 129 138 149 97 357 275 112 308 349 347 235 224 203 163
302 294 305 144 256 158 126 150 164 219 160 148 144 165 197 190 201 208 176 181 208 194 229 231 251 275 294 327 169 218 200 98 130 105 101 328 268 62 353 332 284 279 198 165 124
307 270 220 211 175 183 144 177 196 88 141 112 136 141 201 172 192 195 245 175 212 226 218 305 260 350 353 352 331 339 343 343 111 114 111 295 32 15 360 334 241 200 126 124 97
297 260 223 185 160 171 161 157 92 162 134 127 129 156 183 197 213 171 26 338 91 210 270 212 64 305 297 326 344 322 32 332 94 78 86 64 342 215 39 48 66 105 97 90 95
111 96 115 156 145 139 261 83 64 44 109 142 149 206 156 175 171 164 28 306 275 288 278 200 128 2 26 353 300 264 327 323 8 110 89 105 74 45 32 59 86 99 98 91 84
40 68 103 123 113 59 13 30 8 87 85 186 151 130 150 144 112 81 42 288 310 241 197 257 256 35 246 3 343 309 330 4 81 10 115 115 54 6 36 68 94 92 87 85 78
42 70 99 80 90 39 56 5 335 106 242 115 102 104 133 137 91 98 88 32 351 300 16 354 32 61 20 320 277 285 340 332 348 47 40 74 87 15 68 76 93 95 89 79 76
74 81 139 356 118 162 230 51 254 101 46 117 97 69 178 90 91 88 227 14 3 39 14 356 35 114 124 180 161 14 354 352 32 64 47 45 122 89 112 107 86 87 81 83 84
104 100 30 11 10 347 28 352 89 11 55 72 111 108 114 72 51 113 90 359 355 12 25 34 58 40 54 58 316 318 16 13 6 45 48 50 134 149 143 124 99 87 77 71 65
50 82 124 100 69 112 53 333 103 52 39 33 70 58 103 96 78 86 67 60 71 359 37 39 79 68 45 351 326 35 32 33 62 34 57 120 132 164 162 144 137 133 114 80 54
108 134 91 120 90 81 15 36 104 111 8 28 100 49 74 85 39 134 158 65 43 9 77 30 136 143 50 354 23 67 42 40 47 33 76 113 108 155 146 145 147 124 94 68 45
110 89 110 129 107 111 39 357 66 109 57 47 78 81 77 59 49 61 78 85 75 29 67 61 136 180 121 9 38 75 13 16 10 41 27 70 83 160 167 167 157 143 125 97 35